Location: Staunton
(38.1490°N, 79.0720°W)
Time: 14:26:33
(UTC-04:00)

ISS - Pass Details

Date: 22 May 2017
Orbit: 402 x 408 km, 51.6° (Epoch: 29 May)

Event Time Altitude Azimuth Distance (km) Brightness Sun altitude
Exits shadow 23:52:23 11° 24° (NNE) 1,422 -0.6 -28.3°
Drops below altitude 10° 23:52:32 10° 25° (NNE) 1,468 -0.5 -28.3°
Sets 23:54:57 0° 42° (NE) 2,329 0.4 -28.4°
